Время (UTC), дата Ветер
(°,м/с) 
Видим.   Явления Облачность Т
(°С)
Тd
(°С)
f(%) Тe
(°С)
Pmin
(гПа)
dP
(гПа)
Po
(мм)
O2
(г/м3)
Тmin Tmax R s Состояние
почвы
00 03.03.15 тихо ()   4000 м  слаб. снег  10/0 средняя, верхняя 
[Ac trans|Cs]
-12.7 -14.2 88 -13  1018.3  0.9  756  321           
03 03.03.15 060 (СВ) 4000 м  слаб. снег  10/0 средняя, верхняя 
[As trans|Cs]
-8.2 -11.9 75 -10  1018.3  0.2  756  315           
06 03.03.15 110 (В) 10 км  {снег}  4/0 средняя 
[Ac trans]
-6.1 -10.8 69 -6  1017.6  -0.5  755  312           
09 03.03.15 170 (Ю) 20000 м    1/0 средняя 
[Ac lent]
-10.7 -13.4 80 -11  1018.3  0.5  756  318    -4.7  0.0     
12 03.03.15 300 (СЗ) 10 км    ясно 
-17.1 -18.9 86 -17  1019.3  0.5  756  327           
15 03.03.15 330 (СЗ) 10 км    ясно 
-20.2 -22.3 84 -20  1020  0.6  757  331           
18 03.03.15 330 (СЗ) 10 км    ясно 
-18.5 -20.4 85 -19  1020.1  0.2  757  329           
21 03.03.15 340 (С) 10 км    ясно 
-21 -22.9 84 -24  1020.6  0.4  757  332  -22.2      60  равномерный
сухой снег
100% 
00 04.03.15 350 (С) 20000 м    10/0 средняя, верхняя 
[Ac trans|Cs]
-15.3 -17.1 86 -18  1020.8  0.4  758  325           
03 04.03.15 340 (С) 20000 м    10/0 верхняя 
[Cs]
-7.3 -13.5 61 -7  1019.1  -1.3  757  314           
06 04.03.15 тихо ()   20000 м    8/0 верхняя 
[Cs]
-3.2 -12.7 48 -3  1016.9  -2  755  309           
09 04.03.15 190 (Ю) 20000 м    ясно 
-8.3 -14.2 62 -8  1017.6  0.4  755  315    -2.5       
12 04.03.15 тихо ()   10 км    10/0 верхняя 
[Cs]
-13.3 -15.7 82 -13  1018.9  1.1  756  322           
15 04.03.15 320 (СЗ) 10 км    10/0 верхняя 
[Cs]
-7.8 -12.9 67 -11  1018.7  756  315           
18 04.03.15 220 (ЮЗ) 10 км    10/0 верхняя 
[Cs]
-16.5 -17.8 89 -17  1019.6  0.9  757  326           
21 04.03.15 170 (Ю) 10 км    ясно 
-16.8 -18.4 87 -17  1020.7  0.7  757  327  -16.8      59  равномерный
сухой снег
100% 
00 05.03.15 220 (ЮЗ) 20000 м    ясно 
-11.2 -15.8 69 -11  1021.7  1.2  758  320  -19.3         
03 05.03.15 190 (Ю) 20000 м    ясно 
-2.6 -13.5 43 -2  1021.4  758  310           
06 05.03.15 170 (Ю) 20000 м    1/1 600 м кучево-дожд. 
[Cb cap]
-0.7 -15 33 1020.3  -1  758  307           
09 05.03.15 250 (З) 20000 м    3/0 верхняя 
[Ci fib]
-6 -20.8 30 -9  1021.4  0.9  758  314    -0.3       
12 05.03.15 160 (Ю) 20000 м    ясно 
-12.4 -21.2 48 -14  1023.1  1.3  759  322           
15 05.03.15 140 (ЮВ) 20000 м    3/0 средняя 
[Ac trans]
-14.9 -17.1 83 -15  1023.4  0.2  759  325           
18 05.03.15 340 (С) 20000 м    ясно 
-21.6 -24 81 -22  1023.4  -0.2  759  334           
21 05.03.15 080 (В) 20000 м    ясно 
-23 -25.3 81 -23  1023.6  0.1  759  336  -24.7      58  равномерный
сухой снег
100% 
00 06.03.15 030 (СВ) 20000 м    ясно 
-16.4 -20.8 69 -17  1023.8  0.5  760  327  -25.7         
03 06.03.15 070 (В) 10 км    8/3 1000 м средняя, верхняя 
[Sc|Ac lent|Cc]
-12.6 -17.1 69 -15  1022.4  -1.2  759  322           
06 06.03.15 080 (В) 20000 м    10/0 средняя, верхняя 
[Ac lent|Cs]
-7.1 -13.9 58 -10  1020  -2.1  757  314           
09 06.03.15 050 (СВ) 20000 м    10/0 средняя 
[Ac As]
-8.6 -14 65 -10  1019.2  -0.9  757  316    -6.3       
12 06.03.15 030 (СВ) 20000 м    10/0 средняя 
[As trans]
-10.2 -14.1 73 -10  1019.2  757  318           
15 06.03.15 360 (С) 20000 м    10/0 средняя 
[As trans]
-9.4 -13.8 70 -11  1018.7  -0.5  756  317           
18 06.03.15 010 (С) 20000 м    10/0 средняя 
[As trans]
-9.4 -13.7 71 -9  1017.9  -0.8  756  317           
21 06.03.15 020 (С) 20000 м    10/0 средняя 
[As trans]
-9.3 -13.9 69 -9  1017.5  -0.3  755  316  -11.4      58  равномерный
сухой снег
100% 
00 07.03.15 070 (В) 20000 м    10/0 средняя 
[As trans]
-7.8 -13.5 64 -8  1017.6  -0.1  755  315           
03 07.03.15 020 (С) 2000 м  снег  10/0 средняя 
[As op]
-6.8 -9.4 82 -6  1017.1  -0.5  755  313           
06 07.03.15 070 (В) н/о    н/о 
-5 -8.5 76 -5  1016.3  -0.7  755  311           
09 07.03.15 150 (ЮВ) 10 км    10/0 средняя, верхняя 
[Ac As|Cc]
-6.7 -9.1 83 -6  1017.3  0.9  755  313    -3.4     
12 07.03.15 тихо ()   1000 м  дымка  10/0 средняя, верхняя 
[Ac trans|Cs]
-12.6 -13.7 91 -13  1018.9  1.3  756  321           
15 07.03.15 тихо ()   4000 м  дымка  6/0 средняя 
[Ac trans]
-13.4 -14.9 89 -13  1020.2  1.3  757  322           
18 07.03.15 160 (Ю) 4000 м  дымка  ясно 
-15.2 -17 86 -15  1021.9  1.6  758  325           
21 07.03.15 230 (ЮЗ) 10 км    ясно 
-14.4 -18.2 73 -18  1023.8  1.9  760  325  -17.5      59  равномерный
сухой снег
100% 
00 08.03.15 340 (С) 20000 м    ясно 
-10.3 -16.3 61 -10  1025  1.3  761  320           
03 08.03.15 200 (Ю) 20000 м    1/0 верхняя 
[Ci fib]
-3.3 -14.3 42 -5  1024.8  0.1  761  312           
06 08.03.15 180 (Ю) 20000 м    3/1 600 м кучево-дожд., верхняя 
[Cb cap|Ci fib]
-1.6 -14.7 36 -3  1024.1  -0.6  760  309           
09 08.03.15 160 (Ю) 20000 м    9/0 средняя, верхняя 
[Ac As|Ci fib]
-5.3 -15.7 44 -7  1024.6  0.3  761  314    -1       
12 08.03.15 030 (СВ) 20000 м    8/0 средняя, верхняя 
[Ac As|Ci fib]
-9.5 -14.9 65 -9  1025.2  0.4  761  319           
15 08.03.15 тихо ()   20000 м    10/0 средняя, верхняя 
[Ac lent|Cs]
-14.8 -17 84 -15  1025.1  -0.3  761  326           
18 08.03.15 350 (С) 20000 м    10/0 средняя 
[Ac und]
-15.2 -16.8 88 -15  1024.3  -0.8  760  326           
21 08.03.15 340 (С) 20000 м    10/0 средняя 
[Ac und]
-14.5 -16.8 83 -15  1024  -0.3  760  325  -16.4      58  равномерный
сухой снег
100% 
00 09.03.15 360 (С) 20000 м    10/0 средняя, верхняя 
[Ac As|Cs]
-10.2 -15.2 67 -10  1023.9  0.1  760  319           
03 09.03.15 080 (В) 20000 м    10/3 1000 м средняя, верхняя 
[Cu hum|Ac lent|Cc]
-5.7 -15.5 46 -7  1022.7  -1  759  314           
06 09.03.15 150 (ЮВ) 20000 м    6/4 600 м кучево-дожд., средняя, верхняя 
[Cb calv|Ac trans|Ci fib]
-3.2 -14.2 42 -5  1021.3  -1.3  758  310           
09 09.03.15 090 (В) 20000 м    9/3 600 м кучево-дожд., средняя, верхняя 
[Cb cap|Ac lent|Cc]
-5.4 -13.8 52 -5  1021  -0.4  758  313    -2       
12 09.03.15 320 (СЗ) 20000 м    10/0 средняя, верхняя 
[Ac lent|Cc]
-7.1 -12.8 64 -9  1021  758  315           
15 09.03.15 310 (СЗ) 20000 м    10/0 средняя, верхняя 
[Ac lent|Ci fib]
-9.1 -14.8 63 -11  1019.4  -1.7  757  317           
18 09.03.15 310 (СЗ) 20000 м    10/0 верхняя 
[Cs]
-10.3 -16 63 -13  1017.3  -2.2  755  318           
21 09.03.15 330 (СЗ) 20000 м    10/0 средняя 
[As trans]
-10.6 -16 64 -12  1015.4  -1.8  754  317  -11      55  равномерный
сухой снег
100% 
00 10.03.15 320 (СЗ) 20000 м    10/0 средняя 
[As trans]
-9.1 -16.4 55 -14  1013.4  -2  752  315           
03 10.03.15 320 (СЗ) 20000 м    10/0 средняя 
[As trans]
-5.7 -14.6 50 -10  1009.6  -3.6  750  310           
06 10.03.15 340 (С) 5-11{11}  4000 м  слаб. снег  10/0 средняя 
[As op]
-4.5 -10 65 -8  1007.6  -1.9  748  307           
09 10.03.15 330 (СЗ) 5-10{12}  2000 м  снег  10/0 средняя 
[As op]
-5.8 -8.5 81 -10  1007  -0.6  748  309    -3.6  0.5     
12 10.03.15 320 (СЗ) 4{10}  2000 м  снег  10/0 средняя 
[As op]
-6.2 -8.3 85 -10  1005.7  -1.4  747  309           
15 10.03.15 330 (СЗ) 5{10}  2000 м  снег  10/0 средняя 
[As op]
-6.8 -8.2 90 -11  1004.2  -1.5  746  309           
18 10.03.15 330 (СЗ) 5{10}  2000 м  снег  10/0 средняя 
[As op]
-6.8 -8 91 -11  1002.4  -1.8  744  308           
21 10.03.15 320 (СЗ) 10 км  позёмок{снег}  10/10 300 м 
[St]
-5.8 -9.1 77 -10  1000.1  -2.3  742  307  -6.9    66  неравномерный
сухой снег
100% 
00 11.03.15 320 (СЗ) 6-11{13}  1000 м  ливневой снег  10/10 600 м кучево-дожд. 
[Cb cap]
-6 -7.6 88 -11  999.3  -0.7  742  306           
03 11.03.15 310 (СЗ) 5{11}  1000 м  снег{ливн. осадки}  10/0 средняя 
[As op]
-4.2 -6.4 85 -8  997.5  -1.8  741  304           
06 11.03.15 310 (СЗ) 20000 м  в посл. час ливневой снег  10/10 600 м кучево-дожд. 
[Cb cap]
-1.4 -5.6 73 -4  996.5  -0.9  740  300           
09 11.03.15 300 (СЗ) 20000 м    10/8 600 м кучево-дожд., средняя 
[Cb cap|Ac As]
-1.2 -7.2 64 -2  997.7  1.2  741  301    -0.7     
12 11.03.15 190 (Ю) 20000 м    10/6 600 м кучево-дожд., средняя 
[Cb cap|Ac As]
-4.8 -8.4 76 -6  999.5  1.6  742  305           
15 11.03.15 180 (Ю) 20000 м    9/5 600 м кучево-дожд., средняя 
[Cb cap|Ac As]
-6.6 -9.6 79 -6  1000.4  0.8  743  308           
18 11.03.15 200 (Ю) 20000 м    4/0 средняя 
[Ac lent]
-11.3 -12.2 93 -11  1000.6  743  313           
21 11.03.15 250 (З) 20000 м    10/0 средняя 
[Ac und]
-11.8 -13.2 90 -12  1001.2  0.6  743  314  -14.1      70  неравномерный
сухой снег
100% 
00 12.03.15 280 (З) 20000 м    10/0 средняя 
[As op]
-7.9 -10.3 83 -8  1001.8  0.7  744  310           
03 12.03.15 130 (ЮВ) 20000 м    10/0 средняя 
[As op]
-1.7 -8.4 60 -1  1001.9  0.3  744  302           
06 12.03.15 180 (Ю) 20000 м    10/3 600 м кучево-дожд., средняя 
[Cb cap|Ac und]
+2.7 -6.4 51 +2  1001.9  -0.1  744  298           
09 12.03.15 090 (В) 20000 м    10/0 средняя 
[As trans]
+0.1 -5 68 -1  1004.8  2.8  746  301    +3.8       
12 12.03.15 120 (ЮВ) 20000 м    10/0 средняя 
[Ac As]
-2.6 -4.6 86 -2  1008.3  3.3  749  305           
15 12.03.15 190 (Ю) 20000 м    10/6 600 м кучево-дожд., средняя 
[Cb cap|Ac und]
-5.4 -6.1 95 -5  1009.8  1.4  750  309           
18 12.03.15 тихо ()   4000 м  слаб. ливневой снег  8/8 600 м кучево-дожд. 
[Cb cap]
-6.2 -6.9 95 -6  1011.4  1.4  751  310           
21 12.03.15 тихо ()   4000 м  слаб. снег{ливн. осадки}  10/0 средняя, верхняя 
[Ac trans|Cs]
-7.7 -8.7 92 -8  1013.1  1.6  752  313  -7.7    0.2  64  неравномерный
мокрый или
старый снег
100% 
00 13.03.15 тихо ()   20000 м  {ливн. осадки, снег}  9/3 1000 м средняя 
[Cu hum|Ac trans]
-3.9 -5.7 87 -4  1015.3  2.3  754  309  -8         
03 13.03.15 110 (В) 20000 м    1/1 600 м кучево-дожд. 
[Cb cap]
+0.9 -5.4 63 +2  1015.4  0.3  754  303           
06 13.03.15 180 (Ю) 20000 м    1/1 1000 м 
[]
+2.4 -4.6 60 +1  1014.5  -0.8  753  301           
09 13.03.15 200 (Ю) 20000 м    1/0 верхняя 
[Cc]
-0.3 -5.6 67 -3  1015  0.4  754  305    +3  0.0     
12 13.03.15 200 (Ю) 20000 м    ясно 
-3.9 -7.1 78 -6  1015.9  0.8  754  309           
15 13.03.15 200 (Ю) 20000 м    ясно 
-7.7 -9.1 90 -7  1016.7  0.6  755  314           
18 13.03.15 210 (ЮЗ) 20000 м    ясно 
-12.8 -14.1 90 -13  1016.7  -0.2  755  320           
21 13.03.15 тихо ()   20000 м    ясно 
-15.7 -17.4 87 -16  1016.9  0.1  755  324  -15.7      60  неравномерный
мокрый или
старый снег
100% 
00 14.03.15 160 (Ю) 20000 м    ясно 
-6.1 -8.9 80 -6  1016.8  0.3  755  312  -16.5         
03 14.03.15 160 (Ю) 20000 м    ясно 
+1.9 -7.6 49 +1  1015.2  -1.3  754  302           
06 14.03.15 200 (Ю) 6{10}  20000 м    ясно 
+3.2 -7.3 46 1013.6  -1.6  753  301           
09 14.03.15 210 (ЮЗ) 20000 м    ясно 
+1 -6.5 57 -1  1013.8  0.1  753  303    +3.5       
12 14.03.15 220 (ЮЗ) 20000 м    ясно 
-1.4 -6 71 -3  1015.1  1.2  754  306           
15 14.03.15 200 (Ю) 20000 м    4/0 верхняя 
[Cc]
-2.9 -6.2 78 -5  1014.7  -0.4  753  308           
18 14.03.15 тихо ()   20000 м    8/0 средняя 
[Ac lent]
-6.5 -7.7 91 -7  1014.7  -0.2  753  312           
21 14.03.15 020 (С) 10 км    6/0 средняя 
[Ac trans]
-8.5 -9.2 95 -8  1014.4  -0.4  753  314  -8.9      57  неравномерный
мокрый или
старый снег
100% 
00 15.03.15 060 (СВ) 10 км    10/0 средняя, верхняя 
[Ac trans|Cs]
-5.9 -8.2 84 -7  1014.6  0.4  753  311  -10.8         
03 15.03.15 090 (В) 20000 м    10/0 средняя 
[As trans]
-1.7 -6.7 69 -3  1013.4  -1  752  306           
06 15.03.15 180 (Ю) 20000 м    10/0 верхняя 
[Cs]
+3.2 -7.5 45 +2  1011.8  -1.4  751  300           
09 15.03.15 210 (ЮЗ) 20000 м    8/0 средняя 
[Ac As]
+0.1 -7.4 57 -1  1012.3  0.3  752  304    +3.2       
12 15.03.15 120 (ЮВ) 20000 м    10/0 верхняя 
[Cs]
-3.3 -7 76 -3  1013.4  752  308           
15 15.03.15 020 (С) 20000 м    10/0 средняя 
[As trans]
-5.1 -7.5 83 -5  1013.7  0.2  753  310           
18 15.03.15 020 (С) 20000 м    10/0 средняя 
[As trans]
-6.1 -7.8 88 -6  1013.3  -0.4  752  311           
21 15.03.15 010 (С) 10 км    10/0 средняя 
[Ac As]
-6.1 -7.8 88 -6  1013.3  752  311  -6.8      57  неравномерный
мокрый или
старый снег
100% 
00 16.03.15 220 (ЮЗ) 4000 м  дымка{ливн. осадки}  9/8 600 м кучево-дожд., средняя 
[Cb cap|Ac trans]
-2.2 -5.5 78 -2  1014.1  753  306           
03 16.03.15 тихо ()   4000 м  дымка  10/3 600 м кучево-дожд., средняя 
[Cb cap|Ac As]
+3.6 -4.6 55 +4  1012.7  -1.2  752  300           
06 16.03.15 140 (ЮВ) 4000 м  дымка  10/0 средняя 
[As trans]
+1.4 -3.4 70 1011.5  -1.2  751  301           
09 16.03.15 150 (ЮВ) 4000 м  дымка  10/0 средняя 
[As op]
+1.6 -3.5 69 +2  1011.2  -0.3  751  301    +3.7  0.0     
12 16.03.15 010 (С) 1000 м  сильн. снег  10/0 средняя 
[As op]
-0.6 -1.1 96 1010.6  -0.6  750  303           
15 16.03.15 тихо ()   4000 м  слаб. снег  10/0 средняя 
[As op]
-0.8 -1.2 97 -1  1009.9  -0.7  750  303           
18 16.03.15 тихо ()   4000 м  дымка{снег}  10/0 средняя 
[As trans]
-9.3 -10.3 92 -9  1010.9  0.7  750  314           
21 16.03.15 тихо ()   4000 м  дымка  3/0 средняя 
[Ac lent]
-7.7 -8.5 94 -8  1012.1  1.2  751  312  -10.1    11  69  неравномерный
мокрый или
старый снег
100% 
00 17.03.15 тихо ()   4000 м  дымка  ясно 
+2.4 -3 67 +2  1013.4  1.6  753  301           
03 17.03.15 300 (СЗ) 20000 м    4/3 1000 м верхняя 
[Cu hum|Ci fib]
+3.6 -6.9 46 +2  1013.3  0.1  752  300           
06 17.03.15 290 (З) 20000 м    6/3 1000 м средняя, верхняя 
[Cu hum|Ac lent|Ci fib]
+4 -8.4 40 +3  1013  -0.2  752  300           
09 17.03.15 280 (З) 20000 м    1/1 1000 м 
[Cu hum]
+1.9 -7.2 51 +1  1014.4  1.3  753  302    +4.2       
12 17.03.15 250 (З) 20000 м    ясно 
-1.9 -7.5 66 -3  1017  2.5  755  307           
15 17.03.15 210 (ЮЗ) 20000 м    ясно 
-5.6 -8.8 78 -5  1017.9  0.7  756  312           
18 17.03.15 320 (СЗ) 20000 м    ясно 
-7.3 -9.4 85 -7  1018.6  0.7  756  314           
21 17.03.15 250 (З) 20000 м    ясно 
-8.8 -10.7 86 -9  1019  0.3  756  316  -9.9      58  неравномерный
мокрый или
старый снег
100% 
00 18.03.15 тихо ()   20000 м    10/0 верхняя 
[Cc]
-1.9 -6.6 70 -2  1019.1  0.4  757  308  -10.3         
03 18.03.15 160 (Ю) 20000 м    3/0 верхняя 
[Cc]
+2.1 -5.1 59 -1  1017.8  -1.2  756  303           
06 18.03.15 200 (Ю) 20000 м    ясно 
+3.6 -7.7 43 +1  1015.9  -1.8  755  301           
09 18.03.15 200 (Ю) 20000 м    3/0 верхняя 
[Ci fib]
+1.5 -5.9 58 -1  1015.4  -0.6  754  303    +4.1       
12 18.03.15 170 (Ю) 20000 м    9/0 средняя, верхняя 
[Ac trans|Cs]
-2.1 -6.2 73 -2  1016.6  755  307           
15 18.03.15 350 (С) 20000 м    10/0 средняя 
[Ac und]
-3.1 -5.7 82 -3  1016.5  -0.1  755  308           
18 18.03.15 050 (СВ) 20000 м    3/0 средняя 
[Ac trans]
-8 -8.9 93 -8  1016.1  -0.6  754  314           
21 18.03.15 290 (З) 0500 м  туман  ясно 
-9.2 -10 94 -9  1015.9  -0.3  754  315  -9.7      57  неравномерный
мокрый или
старый снег
100% 
00 19.03.15 020 (С) 2000 м  в посл. час туман  ясно 
-4.3 -5.1 94 -4  1015.9  0.2  754  309           
03 19.03.15 130 (ЮВ) 4000 м  дымка  ясно 
+0.7 -5 66 +1  1014.2  -1.4  753  303           
06 19.03.15 110 (В) 10 км    ясно 
+2.3 -5.2 58 +2  1012.2  -2  752  301           
09 19.03.15 тихо ()   20000 м    8/0 средняя, верхняя 
[Ac lent|Cc]
+0.6 -5.4 64 +1  1011.6  -0.6  751  303    +2.6       
12 19.03.15 260 (З) 20000 м    5/0 средняя 
[Ac lent]
-5.4 -6.6 91 -5  1011.9  751  310           
15 19.03.15 320 (СЗ) 20000 м    4/0 верхняя 
[Cc]
-7.6 -8.4 94 -7  1011.4  -0.6  751  312           
18 19.03.15 330 (СЗ) 20000 м    10/0 средняя 
[Ac lent]
-4.1 -6.6 83 -4  1010.6  -0.6  750  308           
21 19.03.15 280 (З) 10 км  {ливн. осадки}  10/6 600 м кучево-дожд., средняя 
[Cb cap|Ac lent]
-4.1 -6.1 86 -4  1011  0.3  751  308  -7.7    0.0  55  неравномерный
мокрый или
старый снег
100% 
00 20.03.15 330 (СЗ) 10 км  {ливн. осадки}  ясно 
-0.2 -5.1 69 1010.9  -0.1  751  303           
03 20.03.15 160 (Ю) 20000 м    1/1 1000 м 
[Cu hum]
+3.9 -3.4 59 +3  1010.8  751  299           
06 20.03.15 180 (Ю) 20000 м    3/3 1000 м 
[Cu med, cong]
+5.9 -3.7 50 +5  1010.1  -0.6  750  296           
09 20.03.15 260 (З) 20000 м    3/0 средняя 
[Ac trans]
+5.2 -8.3 37 +4  1011.6  1.4  751  298    +7.7       
12 20.03.15 270 (З) 20000 м    3/0 средняя 
[Ac trans]
-1.5 -8.9 57 -1  1013.3  1.5  752  306           
15 20.03.15 240 (ЮЗ) 20000 м    ясно 
-1.5 -9.1 56 -2  1013.4  0.1  752  306           
18 20.03.15 330 (СЗ) 20000 м    ясно 
-4.5 -8.5 74 -6  1013.2  -0.2  752  309           
21 20.03.15 310 (СЗ) 20000 м    4/0 средняя 
[Ac trans]
-9.2 -10.6 90 -9  1013.3  0.1  752  315  -9.9      51  неравномерный
мокрый или
старый снег
100% 
00 21.03.15 350 (С) 20000 м    3/0 средняя, верхняя 
[Ac trans|Cc]
-1.1 -7.8 60 -2  1013.2  0.2  752  305           
03 21.03.15 110 (В) 20000 м    4/0 средняя, верхняя 
[Ac trans|Cc]
+1.4 -5.6 60 +1  1012  -1.1  752  302           
06 21.03.15 140 (ЮВ) 20000 м    6/0 средняя, верхняя 
[Ac lent|Ci]
+1.9 -5 60 +1  1010.2  -1.7  750  301           
09 21.03.15 100 (В) 20000 м    9/6 600 м кучево-дожд., средняя 
[Cb cap|Ac lent]
-0.3 -3.6 78 -1  1010.1  0.1  750  303    +2.8       
12 21.03.15 050 (СВ) 20000 м    10/8 600 м кучево-дожд., средняя 
[Cb cap|Ac As]
-1.3 -3.5 85 -1  1011.1  0.9  751  304           
15 21.03.15 350 (С) 4000 м  слаб. ливневой снег  10/8 600 м кучево-дожд., средняя 
[Cb cap|Ac As]
-0.9 -3.4 83 1011  751  304           
18 21.03.15 030 (СВ) 4000 м  слаб. снег{ливн. осадки}  10/0 средняя 
[As op]
-1.4 -1.9 96 -1  1010.2  -0.9  750  304           
21 21.03.15 070 (В) 4000 м  слаб. снег  10/0 средняя 
[As op]
-1.2 -1.7 96 -1  1009.3  -0.9  749  303  -1.9    52  неравномерный
мокрый или
старый снег
100% 
00 22.03.15 030 (СВ) 2000 м  слаб. снег  10/0 средняя 
[As op]
+0.1 -1 92 +1  1008.3  -0.9  749  302           
03 22.03.15 340 (С) 2000 м  слаб. снег  10/0 средняя 
[As op]
+1 -0.4 90 1007.5  -0.8  748  300           
06 22.03.15 070 (В) 1000 м  сильн. снег  10/0 средняя 
[As op]
+0.1 -0.7 94 -1  1007.3  -0.2  748  301           
09 22.03.15 280 (З) 1000 м  снег  10/0 средняя 
[As op]
-0.4 -0.9 96 1008.5  1.1  749  302    +1.2     
12 22.03.15 310 (СЗ) 1000 м  сильн. снег  10/0 средняя 
[As op]
-2.8 -3.2 97 -6  1009.8  1.2  750  306           
15 22.03.15 250 (З) 2000 м  снег  10/0 средняя 
[As op]
-3.6 -4.1 96 -5  1010.8  750  307           
18 22.03.15 330 (СЗ) 2000 м  снег  10/0 средняя 
[As op]
-3.7 -4.2 96 -6  1011.1  0.3  751  307           
21 22.03.15 340 (С) 2000 м  слаб. снег  10/0 средняя 
[As op]
-3.1 -3.7 96 -5  1013.2  2.1  752  307  -5    16  72  неравномерный
сухой снег
100% 
00 23.03.15 350 (С) 2000 м  снег  10/0 средняя 
[As op]
-0.8 -1.6 94 -3  1015.9  2.8  754  305           
03 23.03.15 010 (С) 10 км  в посл. час снег  10/3 600 м кучево-дожд., средняя 
[Cb cap|As op]
+2.2 -2.6 71 +1  1017.8  756  302           
06 23.03.15 330 (СЗ) 20000 м  {снег}  10/3 600 м кучево-дожд., средняя, верхняя 
[Cb cap|Ac trans|Ci fib]
+3.7 -2.2 65 +3  1019.2  1.4  757  301           
09 23.03.15 320 (СЗ) 20000 м  {ливн. осадки}  8/5 600 м кучево-дожд., средняя 
[Cb cap|Ac trans]
+1.9 -1.1 81 1021.5  2.2  759  304    +3.8  0.7     
12 23.03.15 320 (СЗ) 10 км  {ливн. осадки}  6/3 600 м кучево-дожд., средняя 
[Cb cap|Ac trans]
-1.1 -1.6 96 -2  1023.8  2.2  760  308           
15 23.03.15 010 (С) 10 км    6/0 средняя 
[Ac trans]
-1.8 -3 92 -1  1025.4  1.5  761  309           
18 23.03.15 тихо ()   10 км  в посл. час ливневой снег  3/3 600 м кучево-дожд. 
[Cb cap]
-3.4 -4.6 91 -3  1026.3  0.9  762  311           
21 23.03.15 030 (СВ) 20000 м    8/0 средняя 
[Ac trans]
-4.7 -5.8 92 -4  1027.6  1.2  763  313  -5.1    0.4  58  неравномерный
мокрый или
старый снег
100% 
00 24.03.15 220 (ЮЗ) 20000 м    3/0 средняя 
[Ac trans]
+0.5 -5.4 65 +1  1028.4  764  308  -5.5         
03 24.03.15 160 (Ю) 20000 м    3/3 1000 м 
[Cu med, cong]
+2.9 -3.7 62 +2  1027.9  -0.4  763  305           
06 24.03.15 160 (Ю) 20000 м    4/3 600 м кучево-дожд., верхняя 
[Cb cap|Ci ing]
+3.4 -4.6 56 +2  1026.4  -1.4  762  304           
09 24.03.15 170 (Ю) 20000 м    3/1 1000 м средняя 
[Cu hum|Ac lent]
+1.7 -4.5 63 +1  1026  -0.5  762  306    +4.4       
12 24.03.15 240 (ЮЗ) 20000 м    ясно 
-2.5 -5.5 80 -2  1026.7  0.5  762  311           
15 24.03.15 140 (ЮВ) 20000 м    ясно 
-6.1 -7.5 90 -6  1027.2  0.3  763  315           
18 24.03.15 тихо ()   20000 м    ясно 
-8.4 -9.3 93 -8  1027.3  0.1  763  318           
21 24.03.15 090 (В) 20000 м    3/0 средняя 
[Ac lent]
-10 -11 92 -10  1027.2  -0.2  762  320  -11.9      54  неравномерный
мокрый или
старый снег
100% 
00 25.03.15 тихо ()   20000 м    9/0 верхняя 
[Cc]
-0.2 -8.3 54 -0  1027.2  0.4  763  308  -12.4         
03 25.03.15 180 (Ю) 20000 м    9/0 верхняя 
[Cc]
+4.4 -10.2 34 +3  1025.4  -1.6  762  303           
06 25.03.15 210 (ЮЗ) 20000 м    3/0 средняя 
[Ac lent]
+5.7 -9.8 32 +4  1023.6  -1.7  760  301           
09 25.03.15 200 (Ю) 20000 м    1/0 средняя 
[Ac lent]
+4.3 -6 47 +3  1022.6  -1.1  759  302    +6       
12 25.03.15 240 (ЮЗ) 20000 м    8/0 средняя, верхняя 
[Ac lent|Ci fib]
+2.5 -5.8 54 +1  1022.5  -0.1  759  304           
15 25.03.15 тихо ()   20000 м    3/0 верхняя 
[Ci fib]
-3.3 -6 82 -3  1021.3  -1.5  758  310           
18 25.03.15 тихо ()   20000 м    3/0 средняя 
[Ac trans]
-6.2 -7.3 92 -6  1019.4  -2  757  313           
21 25.03.15 тихо ()   10 км    4/0 
-8.8 -9.9 92 -9  1018.1  -1.4  756  316  -8.8      53  неравномерный
мокрый или
старый снег
100% 
00 26.03.15 210 (ЮЗ) 4000 м  дымка  10/0 средняя, верхняя 
[Ac trans|Cs]
-0.3 -5.7 67 1016.3  -1.4  755  305  -8.8         
03 26.03.15 110 (В) 4000 м  дымка  9/0 верхняя 
[Cs]
+3.4 -4 58 +3  1013.3  -2.8  753  300           
06 26.03.15 220 (ЮЗ) 4000 м  дымка  10/0 средняя 
[As trans]
+7.7 -2.9 47 +7  1010.1  -3  750  294           
09 26.03.15 070 (В) 4000 м  дымка  10/0 средняя 
[As op]
+6 -0.8 62 +7  1008.2  -2  749  295    +8.6       
12 26.03.15 330 (СЗ) 4000 м  дымка  10/0 средняя 
[As trans]
+3 -1 75 +4  1008  -0.3  749  298           
15 26.03.15 тихо ()   4000 м  дымка  ясно 
+1.2 -1.7 81 +1  1006.7  -1.3  748  300           
18 26.03.15 200 (Ю) 4000 м  дымка  10/0 средняя 
[Ac As]
+1.4 -1.2 83 +2  1005.4  -1.3  747  299           
21 26.03.15 190 (Ю) 4000 м  дымка  10/0 средняя 
[Ac und]
+1.2 -1 85 +2  1005.3  0.1  747  300  +0.5      49  неравномерный
мокрый или
старый снег
100% 
00 27.03.15 210 (ЮЗ) 4000 м  дымка  10/0 средняя 
[Ac As]
+6 -1.3 59 +7  1006.5  1.3  748  295           
03 27.03.15 270 (З) 10 км    3/0 средняя 
[Ac lent]
+13.4 -3.8 30 +14  1006.7  0.4  748  288           
06 27.03.15 280 (З) 20000 м    4/0 средняя, верхняя 
[Ac lent|Cc]
+14.4 -7 22 +15  1006.7  748  287           
09 27.03.15 300 (СЗ) 20000 м    8/0 средняя, верхняя 
[Ac lent|Cc]
+10.5 -6.9 29 +11  1007.7  0.8  749  291    +14.8       
12 27.03.15 300 (СЗ) 20000 м    10/0 верхняя 
[Cs]
+6.2 -10.3 30 +6  1010.4  2.6  750  297           
15 27.03.15 310 (СЗ) 20000 м    10/0 верхняя 
[Cs]
+3.4 -10.9 34 +3  1011.6  751  300           
18 27.03.15 330 (СЗ) 20000 м    ясно 
+0.9 -13.6 33 -1  1012.5  0.9  752  303           
21 27.03.15 320 (СЗ) 20000 м    6/0 средняя, верхняя 
[Ac trans|Ci fib]
+0.3 -15.1 30 -2  1012.3  -0.3  752  304  -0.1      43  неравномерный
мокрый или
старый снег
100% 
00 28.03.15 340 (С) 20000 м    10/0 верхняя 
[Ci sp]
+2.6 -12.6 32 +2  1013.4  1.2  753  301  -0.3         
03 28.03.15 030 (СВ) 20000 м    10/0 средняя 
[Ac und]
+5.4 -9.2 34 +4  1012.6  -0.7  752  298           
06 28.03.15 050 (СВ) 20000 м    10/0 средняя 
[Ac und]
+5.6 -8 37 +6  1010.9  -1.7  751  297           
09 28.03.15 180 (Ю) 20000 м    10/0 средняя 
[Ac und]
+3.6 -6.3 48 +4  1010.5  -0.4  750  299    +5.8       
12 28.03.15 тихо ()   20000 м    5/0 средняя, верхняя 
[Ac lent|Ci fib]
-2.1 -5.3 79 -2  1011.5  0.8  751  306           
15 28.03.15 250 (З) 20000 м    1/0 средняя 
[Ac lent]
-4.8 -6.3 89 -4  1011.2  -0.4  751  309           
18 28.03.15 тихо ()   20000 м    ясно 
-6.6 -7.5 93 -7  1010.8  -0.5  750  311           
21 28.03.15 210 (ЮЗ) 20000 м    ясно 
-7.7 -9.9 84 -9  1011.8  751  312  -8.4      40  неравномерный
мокрый или
старый снег
100% 
00 29.03.15 250 (З) 20000 м    3/0 верхняя 
[Ci fib]
+2.9 -8.2 44 +1  1012  0.6  752  300           
03 29.03.15 330 (СЗ) 20000 м    ясно 
+5.9 -9 33 +5  1012.4  0.5  752  297           
06 29.03.15 270 (З) 20000 м    10/0 средняя 
[Ac As]
+6.5 -8.5 33 +6  1012.2  -0.2  752  297           
09 29.03.15 300 (СЗ) 20000 м    4/0 средняя, верхняя 
[Ac lent|Cc]
+7.2 -10 28 +8  1012  -0.2  752  296    +8       
12 29.03.15 180 (Ю) 20000 м    ясно 
-1.6 -6.6 69 -1  1013.6  1.3  753  306           
15 29.03.15 020 (С) 20000 м    10/0 верхняя 
[Cs]
-2.2 -6.5 72 -2  1013.5  0.1  752  306           
18 29.03.15 360 (С) 20000 м    10/0 средняя, верхняя 
[As op|Ci fib]
-3.5 -6.2 82 -3  1012.7  -0.8  752  308           
21 29.03.15 060 (СВ) 20000 м    10/0 средняя 
[Ac As]
-2 -5.9 75 -4  1010.7  -1.9  750  305  -4.2      36  равномерный
мокрый или
старый снег
100% 
00 30.03.15 030 (СВ) 2000 м  снег  10/0 средняя 
[As op]
-1.4 -3.7 84 -2  1011  0.2  751  304           
03 30.03.15 090 (В) 20000 м  {снег}  9/0 верхняя 
[Cs]
+2.1 -2.9 69 +3  1009.5  -1.3  750  300           
06 30.03.15 160 (Ю) 20000 м  {снег}  10/0 верхняя 
[Cs]
+4.5 -1.9 63 +3  1008.3  -1.1  749  297           
09 30.03.15 090 (В) 20000 м    10/0 
+3.4 -1.3 71 +4  1008.6  0.3  749  298    +5  0.0     
12 30.03.15 тихо ()   20000 м    10/0 средняя 
[As trans]
-0.1 -2 87 -0  1009.5  1.1  750  302           
15 30.03.15 340 (С) 20000 м    10/0 средняя 
[As trans]
+0.6 -3.6 73 +1  1010.2  0.4  750  302           
18 30.03.15 290 (З) 20000 м    3/0 средняя 
[Ac lent]
-0.1 -9.1 51 +1  1010.7  0.4  750  303           
21 30.03.15 270 (З) 20000 м    1/0 средняя 
[Ac lent]
-5.3 -8.5 78 -5  1012.3  1.4  752  310  -5.3      34  равномерный
мокрый или
старый снег
100% 
00 31.03.15 310 (СЗ) 20000 м    3/0 средняя 
[Ac lent]
+3.4 -13.6 27 +1  1013.8  1.8  753  301  -5.6         
03 31.03.15 290 (З) 3{13}  20000 м    1/1 1000 м 
[Cu hum]
+4.6 -12.4 28 +3  1013.7  0.1  753  299           
06 31.03.15 300 (СЗ) 20000 м    4/4 1000 м 
[Cu med, cong]
+5.3 -10 32 +4  1013.4  -0.2  753  298           
09 31.03.15 300 (СЗ) 20000 м    4/3 1000 м средняя 
[Cu hum|Ac trans]
+4.1 -8.9 38 +4  1015  1.6  754  300    +5.6       
12 31.03.15 300 (СЗ) 20000 м    ясно 
+0.6 -9.3 47 +1  1017.5  2.3  756  305           
15 31.03.15 тихо ()   20000 м    ясно 
-1.2 -9.4 54 -1  1018.5  756  307           
18 31.03.15 270 (З) 20000 м    ясно 
-5.5 -9.7 72 -5  1018.3  -0.4  756  312           
21 31.03.15 180 (Ю) 20000 м    ясно 
-7.1 -9.1 86 -7  1017.9  -0.5  756  314  -8.5      30  мокрый или
старый снег
50-90% 
00 01.04.15 180 (Ю) 20000 м    ясно 
+1.5 -7.7 50 1016.3  -1.3  755  303           
03 01.04.15 210 (ЮЗ) 20000 м    ясно 
+4.8 -7.2 41 +3  1013.6  -2.5  753  299           
06 01.04.15 210 (ЮЗ) 5{10}  20000 м    ясно 
+6.9 -6.9 37 +5  1010  -3.5  750  296           
09 01.04.15 200 (Ю) 4{10}  20000 м    ясно 
+6.4 -4.9 44 +5  1007.8  -2.2  749  295    +7.1       
12 01.04.15 250 (З) 10 км    ясно 
+4.4 -6.6 45 +3  1008.8  749  298           
15 01.04.15 260 (З) 10 км    4/0 средняя 
[Ac trans]
+4.2 -7.2 43 +3  1009.9  1.1  750  298           
18 01.04.15 320 (СЗ) 10 км    10/0 верхняя 
[Cs]
+0.8 -7.7 53 +1  1011  0.9  751  302           
21 01.04.15 тихо ()   20000 м    ясно 
-4.7 -7.8 79 -5  1012.7  1.5  752  309  -4.8      25  мокрый или
старый снег
50-90% 
00 02.04.15 270 (З) 20000 м    ясно 
+4.6 -11.7 29 +4  1013.4  753  299  -4.9         
03 02.04.15 360 (С) 20000 м    10/0 верхняя 
[Cs]
+7.1 -16 17 +6  1012.8  -0.5  752  297           
06 02.04.15 100 (В) 20000 м    10/0 средняя, верхняя 
[Ac As|Cs]
+7.4 -12.1 24 +7  1011.4  -1.4  751  296           
09 02.04.15 110 (В) 20000 м    10/1 600 м кучево-дожд., средняя, верхняя 
[Cb cap|Ac As|Cs]
+4.4 -10.6 33 +4  1010.4  -1.1  750  299    +9.1       
12 02.04.15 170 (Ю) 20000 м    10/0 средняя, верхняя 
[Ac lent|Cs]
+1.8 -8.5 46 +1  1010.3  -0.2  750  301           
15 02.04.15 070 (В) 20000 м    10/0 средняя 
[As trans]
-0.2 -7.6 57 1009.7  -0.6  750  303           
18 02.04.15 340 (С) 20000 м    10/0 средняя 
[Ac As]
-0.4 -8 56 1007.9  -1.8  748  303           
21 02.04.15 350 (С) 20000 м    10/0 средняя 
[Ac und]
-0.7 -8.6 55 1007.9  748  303  -1      21  мокрый или
старый снег
50-90% 
00 03.04.15 340 (С) 20000 м    10/0 средняя, верхняя 
[Ac As|Cs]
+1.2 -13.8 32 +1  1008.3  0.5  749  302           
03 03.04.15 320 (СЗ) 20000 м    ясно 
+4 -16.3 21 +2  1008.4  0.1  749  299           
Время (UTC), дата Ветер
(°,м/с) 
Видим.   Явления Облачность Т
(°С)
Тd
(°С)
f(%) Тe
(°С)
Pmin
(гПа)
dP
(гПа)
Po
(мм)
O2
(г/м3)
Тmin Tmax R s Состояние
почвы